Retour au catalogue

CZ-3C DEB

LostGTO
NORAD 40829·DEBRIS·🇨🇳 China

Lancé Oct 31, 2010 depuis Xichang Satellite Launch Center

Loading…

TLE

PériméSource: Space-Track

Époque: Jul 13, 2026, 09:47 UTC

1 40829U 10057AW  26194.40823080  .00000504  00000-0  32489-2 0  9990
2 40829  20.9170 251.5343 7088242 149.1518 285.1886  2.38821228   810

Suivez CZ-3C DEB en temps réel avec AllMySat

Download on the App Store